Preview of NWS' New Version of Forecast
This preview is not operational and should not be used for support decisions.

Regional Weather Roundup (RWR)

Issued by National Weather Service (NWS)

                            
000
ASUS43 KLSX 200557
RWRMO 

WEATHER SUMMARY FOR MISSOURI
NATIONAL WEATHER SERVICE SPRINGFIELD MO
100 AM CDT THU JUN 20 2019

NOTE: "FAIR" INDICATES FEW OR NO CLOUDS BELOW 12,000 FEET WITH NO
       SIGNIFICANT WEATHER AND/OR OBSTRUCTIONS TO VISIBILITY.
       CURRENT SKY AND/OR WEATHER CONDITIONS ARE NOT AVAILABLE FOR
       CHILLICOTHE AND FARMINGTON.

MOZ001>031-035>038-043-044-053-054-200700-
...NORTHERN AND WESTERN MISSOURI...
  
CITY           SKY/WX    TMP DP  RH WIND       PRES   REMARKS
KANSAS CTY INT CLEAR     66  63  90 E6        29.72F                  
6HR MIN TEMP:  66; 6HR MAX TEMP:  73;                                

LEE'S SUMMIT   MOCLDY    66  61  84 E3        29.74S                  
6HR MIN TEMP:  65; 6HR MAX TEMP:  75;                                

ST JOSEPH      CLEAR     66  63  90 SE3       29.72F                  
6HR MIN TEMP:  65; 6HR MAX TEMP:  73;                                

CHILLICOTHE      N/A     65  64  97 CALM      29.73S                  
6HR MIN TEMP:  65; 6HR MAX TEMP:  68;                                

     
$$
MOZ066>068-077>081-088>096-101>105-200700-
...SOUTHWEST MISSOURI...
  
CITY           SKY/WX    TMP DP  RH WIND       PRES   REMARKS
SPRINGFIELD    CLEAR     66  63  90 CALM      29.73S                  
6HR MIN TEMP:  66; 6HR MAX TEMP:  77;                                

JOPLIN         CLEAR     65  64  97 CALM      29.74S                  
6HR MIN TEMP:  65; 6HR MAX TEMP:  78;                                

               
$$
MOZ032>034-039>042-045>050-055>058-069>072-200700-
...CENTRAL MISSOURI...  
  
CITY           SKY/WX    TMP DP  RH WIND       PRES   REMARKS
COLUMBIA       NOT AVBL                                               
ROLLA          CLEAR     66  63  90 NW13      29.70F                  
6HR MIN TEMP:  66; 6HR MAX TEMP:  75; 6HR PCP: TRACE;                

SEDALIA        MOCLDY    62  62 100 N6        29.73F                  
6HR MIN TEMP:  62; 6HR MAX TEMP:  73;                                

WARRENSBURG    CLEAR     61  61 100 CALM      29.73S                  
               
$$
MOZ051-052-059>065-200700-
...EAST CENTRAL MISSOURI...
  
CITY           SKY/WX    TMP DP  RH WIND       PRES   REMARKS
ST LOUIS INTL  CLOUDY    71  65  81 W13       29.64S                  
6HR MIN TEMP:  71; 6HR MAX TEMP:  80;                                

SPIRIT OF STL  LGT RAIN  71  67  87 W12G18    29.63F                  
                   
$$
MOZ072>076-082>087-097>100-106>115-200700-
...SOUTH CENTRAL AND SOUTHEAST MISSOURI...
  
CITY           SKY/WX    TMP DP  RH WIND       PRES   REMARKS
CAPE GIRARDEAU FAIR      69  66  90 W3        29.63F                  
6HR MIN TEMP:  66; 6HR MAX TEMP:  81; 6HR PCP:  0.41;                

POPLAR BLUFF   FAIR      70  70 100 NW3       29.64F                  
                                      6HR PCP:  0.49;                

WEST PLAINS    CLEAR     69  66  90 W3        29.72F                  
6HR MIN TEMP:  68; 6HR MAX TEMP:  80;                                

                                       
$$